Regional Weather Roundup
Issued by NWS

Home | Current Version | Previous Version | Graphics & Text | Print | Product List | Glossary On
Versions: 1 2 3 4 5 6 7 8 9 10 11 12 13 14 15 16 17 18 19 20 21 22 23 24 25 26 27 28 29 30 31 32 33 34 35 36 37 38 39 40 41 42 43 44 45 46 47 48 49 50
000
ASUS43 KFSD 062310
RWRSD

WEATHER ROUNDUP FOR SOUTH DAKOTA
NATIONAL WEATHER SERVICE SIOUX FALLS SD
600 PM CDT WED MAY 06 2015

NOTE: "FAIR" INDICATES FEW OR NO CLOUDS BELOW 12,000 FEET WITH NO
SIGNIFICANT WEATHER AND/OR OBSTRUCTIONS TO VISIBILITY.


SDZ001>005-009-010-012>017-070000-
NORTHWEST AND NORTH CENTRAL SOUTH DAKOTA

CITY           SKY/WX    TMP DP  RH WIND       PRES   REMARKS
BUFFALO          N/A     54  51  90 NW30G39   29.60S
FAITH            N/A     61  57  87 SE8       29.60S
MOBRIDGE       CLOUDY    71  58  63 SE10      29.56F
$$

SDZ012>016-024>037-041>051-057-063-072>074-070000-
SOUTHWEST AND SOUTH CENTRAL SOUTH DAKOTA

CITY           SKY/WX    TMP DP  RH WIND       PRES   REMARKS
RAPID CTY ARPT TSTM      54  54 100 N12       29.62R VSB 1/2
PIERRE         LGT RAIN  66  58  75 S13       29.58S
CUSTER         LGT RAIN  52  49  89 N5        29.68S FOG
ELLSWORTH AFB  CLOUDY    60  53  77 NW32      29.60R
PHILIP         LGT RAIN  60  58  92 SE5       29.59S
PINE RIDGE     CLOUDY    63  54  72 SE6       29.58S
SPEARFISH      FOG       48  48 100 W21G28    29.73R VSB 1
WINNER         MOCLDY    64  56  75 SW5       29.60F
$$

SDZ004>011-016>023-039-040-070000-
NORTHEAST SOUTH DAKOTA

CITY           SKY/WX    TMP DP  RH WIND       PRES   REMARKS
ABERDEEN       CLOUDY    66  61  84 S14G25    29.62F
WATERTOWN      PTSUNNY   67  59  75 S18G25    29.68F
BROOKINGS      PTSUNNY   66  63  88 S20G25    29.71S
SISSETON         N/A     68  64  87 S14       29.66F
$$

SDZ017-020-022-023-036>040-048>070-070000-
SOUTHEAST SOUTH DAKOTA

CITY           SKY/WX    TMP DP  RH WIND       PRES   REMARKS
SIOUX FALLS    CLOUDY    66  61  84 S21G28    29.73S
HURON          MOSUNNY   71  61  70 S9G20     29.62F
CHAMBERLAIN    CLOUDY    62  59  90 CALM      29.61F
MITCHELL       MOSUNNY   72  60  66 S26G38    29.64S
YANKTON        CLOUDY    68  61  77 S16G22    29.68S
$$

ABBREVIATIONS USED IN REMARKS
   TC - TEMPERATURE IN CELSIUS
  WCI - WIND CHILL INDEX
   HX - HEAT INDEX
  VSB - VISIBILITY



USA.gov is the U.S. government's official web portal to all federal, state and local government web resources and services.